• In Germany
  • List of Countries
  • For 7 days
  • Water Temperature
  • Satellite Maps
  • Weather Map
  • Weather Widgets
  • user-avatar
    Login

    Hourly Weather Santa Rita

    Today, 18 November, Saturday

    Time Temperature Precipitation Wind Pressure Humidity
    00:00 +27°C° 0.4 mm 1 mps 746 mmHg 90%
    01:00 +27°C° 0.4 mm 1 mps 746 mmHg 91%
    02:00 +27°C° 0.3 mm 1 mps 746 mmHg 92%
    03:00 +26°C° 0.3 mm 1 mps 746 mmHg 92%
    04:00 +26°C° 0.3 mm 1 mps 745 mmHg 93%
    05:00 +27°C° 0.2 mm 1 mps 746 mmHg 91%
    06:00 +27°C° 0.2 mm 1 mps 746 mmHg 89%
    07:00 +28°C° 0.2 mm 1 mps 747 mmHg 88%
    08:00 +29°C° 2.1 mm 1 mps 747 mmHg 82%
    09:00 +31°C° 2.1 mm 1 mps 747 mmHg 76%
    10:00 +32°C° 2.1 mm 1 mps 747 mmHg 71%
    11:00 +33°C° 0.1 mm 1 mps 746 mmHg 66%
    12:00 +34°C° 0.1 mm 1 mps 745 mmHg 61%
    13:00 +34°C° 0.1 mm 1 mps 745 mmHg 57%
    14:00 +34°C° 0.2 mm 1 mps 744 mmHg 61%
    15:00 +33°C° 0.2 mm 1 mps 744 mmHg 65%
    16:00 +33°C° 0.2 mm 1 mps 744 mmHg 70%
    17:00 +31°C° 0.5 mm 1 mps 744 mmHg 74%
    18:00 +30°C° 0.5 mm 1 mps 745 mmHg 79%
    19:00 +29°C° 0.5 mm 1 mps 745 mmHg 84%
    20:00 +28°C° 0.4 mm 1 mps 746 mmHg 86%
    21:00 +28°C° 0.4 mm 1 mps 746 mmHg 89%
    22:00 +26°C° 0.4 mm 0 mps 747 mmHg 91%
    23:00 +25°C° 0.1 mm 0 mps 746 mmHg 91%

    Tomorrow, 19 November, Sunday

    Time Temperature Precipitation Wind Pressure Humidity
    00:00 +25°C° 0.1 mm 0 mps 746 mmHg 92%
    01:00 +25°C° 0.1 mm 0 mps 745 mmHg 92%
    02:00 +25°C° 0.2 mm 0 mps 745 mmHg 92%
    03:00 +26°C° 0.2 mm 1 mps 745 mmHg 93%
    04:00 +26°C° 0.2 mm 1 mps 745 mmHg 93%
    05:00 +27°C° 0.9 mm 1 mps 746 mmHg 91%
    06:00 +27°C° 0.9 mm 1 mps 746 mmHg 90%
    07:00 +28°C° 0.9 mm 1 mps 747 mmHg 89%
    08:00 +29°C° 1.5 mm 1 mps 747 mmHg 84%
    09:00 +30°C° 1.5 mm 1 mps 747 mmHg 79%
    10:00 +32°C° 1.5 mm 2 mps 747 mmHg 73%
    11:00 +32°C° 0.4 mm 1 mps 746 mmHg 69%
    12:00 +33°C° 0.4 mm 1 mps 746 mmHg 64%
    13:00 +34°C° 0.4 mm 1 mps 745 mmHg 60%
    14:00 +33°C° 0.2 mm 1 mps 745 mmHg 64%
    15:00 +33°C° 0.2 mm 1 mps 744 mmHg 68%
    16:00 +32°C° 0.2 mm 1 mps 744 mmHg 72%
    17:00 +31°C° 1.5 mm 1 mps 744 mmHg 77%
    18:00 +29°C° 1.5 mm 1 mps 745 mmHg 82%
    19:00 +28°C° 1.5 mm 1 mps 746 mmHg 88%
    20:00 +28°C° 0.5 mm 1 mps 746 mmHg 88%
    21:00 +28°C° 0.5 mm 1 mps 746 mmHg 89%
    22:00 +27°C° 0.5 mm 1 mps 747 mmHg 90%
    23:00 +27°C° 0.1 mm 1 mps 746 mmHg 91%

    Day after tomorrow, 20 November, Monday

    Time Temperature Precipitation Wind Pressure Humidity
    00:00 +27°C° 0.1 mm 1 mps 746 mmHg 92%
    01:00 +27°C° 0.1 mm 1 mps 745 mmHg 92%
    02:00 +26°C° 0 mm 1 mps 745 mmHg 93%
    03:00 +26°C° 0 mm 1 mps 745 mmHg 93%
    04:00 +26°C° 0 mm 1 mps 745 mmHg 93%
    05:00 +27°C° 0.2 mm 1 mps 746 mmHg 92%
    06:00 +27°C° 0.2 mm 2 mps 747 mmHg 91%
    07:00 +28°C° 0.2 mm 2 mps 747 mmHg 89%
    08:00 +29°C° 0 mm 2 mps 747 mmHg 83%
    09:00 +30°C° 0 mm 2 mps 748 mmHg 76%
    10:00 +33°C° 0 mm 3 mps 748 mmHg 69%
    11:00 +34°C° 0.5 mm 2 mps 747 mmHg 67%
    12:00 +34°C° 0.5 mm 2 mps 746 mmHg 66%
    13:00 +35°C° 0.5 mm 2 mps 745 mmHg 64%
    14:00 +34°C° 0.4 mm 2 mps 745 mmHg 67%
    15:00 +33°C° 0.4 mm 1 mps 744 mmHg 69%
    16:00 +33°C° 0.4 mm 1 mps 744 mmHg 72%
    17:00 +31°C° 0.9 mm 1 mps 745 mmHg 76%
    18:00 +30°C° 0.9 mm 1 mps 745 mmHg 81%
    19:00 +29°C° 0.9 mm 1 mps 746 mmHg 85%
    20:00 +28°C° 0.6 mm 1 mps 746 mmHg 86%
    21:00 +28°C° 0.6 mm 1 mps 747 mmHg 87%
    22:00 +28°C° 0.6 mm 1 mps 747 mmHg 88%
    23:00 +27°C° 0.1 mm 1 mps 746 mmHg 88%

    21 November, Tuesday

    Time Temperature Precipitation Wind Pressure Humidity
    00:00 +27°C° 0.1 mm 1 mps 746 mmHg 89%
    01:00 +27°C° 0.1 mm 1 mps 746 mmHg 90%
    02:00 +27°C° 0.1 mm 1 mps 746 mmHg 90%
    03:00 +26°C° 0.1 mm 1 mps 746 mmHg 91%
    04:00 +26°C° 0.1 mm 1 mps 746 mmHg 91%
    05:00 +27°C° 0 mm 2 mps 746 mmHg 90%
    06:00 +27°C° 0 mm 2 mps 747 mmHg 88%
    07:00 +28°C° 0 mm 2 mps 748 mmHg 87%
    08:00 +29°C° 0 mm 2 mps 748 mmHg 80%
    09:00 +31°C° 0 mm 2 mps 748 mmHg 74%
    10:00 +32°C° 0 mm 2 mps 748 mmHg 67%
    11:00 +34°C° 0.1 mm 2 mps 747 mmHg 64%
    12:00 +35°C° 0.1 mm 2 mps 747 mmHg 61%
    13:00 +35°C° 0.1 mm 2 mps 746 mmHg 57%
    14:00 +34°C° 0.8 mm 1 mps 746 mmHg 62%
    15:00 +33°C° 0.8 mm 1 mps 745 mmHg 67%
    16:00 +32°C° 0.8 mm 1 mps 745 mmHg 72%
    17:00 +31°C° 1.3 mm 1 mps 746 mmHg 77%
    18:00 +29°C° 1.3 mm 1 mps 746 mmHg 83%
    19:00 +28°C° 1.3 mm 1 mps 747 mmHg 88%
    20:00 +28°C° 0.1 mm 1 mps 747 mmHg 88%
    21:00 +28°C° 0.1 mm 1 mps 747 mmHg 88%
    22:00 +27°C° 0.1 mm 1 mps 748 mmHg 89%
    23:00 +27°C° 0.1 mm 1 mps 747 mmHg 89%

    22 November, Wednesday

    Time Temperature Precipitation Wind Pressure Humidity
    00:00 +27°C° 0.1 mm 1 mps 747 mmHg 90%
    01:00 +27°C° 0.1 mm 1 mps 746 mmHg 91%
    02:00 +26°C° 0.6 mm 1 mps 746 mmHg 91%
    03:00 +26°C° 0.6 mm 1 mps 746 mmHg 91%
    04:00 +26°C° 0.6 mm 1 mps 746 mmHg 92%
    05:00 +26°C° 1.7 mm 1 mps 747 mmHg 92%
    06:00 +26°C° 1.7 mm 1 mps 748 mmHg 92%
    07:00 +26°C° 1.7 mm 1 mps 748 mmHg 92%
    08:00 +28°C° 0.7 mm 1 mps 748 mmHg 87%
    09:00 +29°C° 0.7 mm 1 mps 748 mmHg 81%
    10:00 +30°C° 0.7 mm 1 mps 748 mmHg 76%
    11:00 +31°C° 0.3 mm 1 mps 747 mmHg 72%
    12:00 +32°C° 0.3 mm 1 mps 747 mmHg 67%
    13:00 +33°C° 0.3 mm 1 mps 746 mmHg 62%
    14:00 +32°C° 0.1 mm 1 mps 746 mmHg 66%
    15:00 +32°C° 0.1 mm 1 mps 745 mmHg 70%
    16:00 +31°C° 0.1 mm 1 mps 745 mmHg 74%
    17:00 +30°C° 0.5 mm 1 mps 746 mmHg 78%
    18:00 +27°C° 0.5 mm 0 mps 746 mmHg 82%
    19:00 +26°C° 0.5 mm 0 mps 747 mmHg 86%
    20:00 +26°C° 0 mm 0 mps 747 mmHg 87%
    21:00 +25°C° 0 mm 0 mps 747 mmHg 87%
    22:00 +25°C° 0 mm 0 mps 747 mmHg 88%
    23:00 +25°C° 0.5 mm 0 mps 747 mmHg 89%

    23 November, Thursday

    Time Temperature Precipitation Wind Pressure Humidity
    00:00 +25°C° 0.5 mm 0 mps 746 mmHg 90%
    01:00 +24°C° 0.5 mm 0 mps 746 mmHg 91%
    02:00 +24°C° 0.7 mm 0 mps 746 mmHg 92%
    03:00 +24°C° 0.7 mm 0 mps 746 mmHg 92%
    04:00 +26°C° 0.7 mm 1 mps 746 mmHg 93%
    05:00 +26°C° 0.3 mm 1 mps 746 mmHg 91%
    06:00 +27°C° 0.3 mm 1 mps 747 mmHg 90%
    07:00 +27°C° 0.3 mm 1 mps 748 mmHg 88%
    08:00 +29°C° 1.8 mm 1 mps 748 mmHg 83%
    09:00 +30°C° 1.8 mm 2 mps 748 mmHg 78%
    10:00 +32°C° 1.8 mm 2 mps 748 mmHg 73%
    11:00 +32°C° 2.3 mm 2 mps 747 mmHg 72%
    12:00 +32°C° 2.3 mm 2 mps 746 mmHg 71%
    13:00 +32°C° 2.3 mm 2 mps 745 mmHg 69%
    14:00 +31°C° 0.7 mm 2 mps 745 mmHg 73%
    15:00 +31°C° 0.7 mm 1 mps 745 mmHg 77%
    16:00 +30°C° 0.7 mm 1 mps 744 mmHg 81%
    17:00 +29°C° 0.1 mm 1 mps 745 mmHg 83%
    18:00 +28°C° 0.1 mm 1 mps 746 mmHg 86%
    19:00 +27°C° 0.1 mm 1 mps 746 mmHg 88%
    20:00 +27°C° 0.2 mm 1 mps 747 mmHg 88%
    21:00 +27°C° 0.2 mm 1 mps 747 mmHg 88%
    22:00 +27°C° 0.2 mm 1 mps 747 mmHg 88%
    23:00 +27°C° 0.1 mm 1 mps 747 mmHg 90%
    Show more